Time,TemperatureF,DewpointF,PressureIn,WindDirection,WindDirectionDegrees,WindSpeedMPH,WindSpeedGustMPH,Humidity,HourlyPrecipIn,Conditions,Clouds,dailyrainin,SolarRadiationWatts/m^2,SoftwareType,DateUTC
2013-04-27 00:22:00,67.0,65.0,-100.00,SE,143,2.0,7.0,92,0.00,,,0.00,0.000000,,2013-04-27 10:22:00,
2013-04-27 00:32:00,67.0,65.0,-100.00,SE,143,2.0,7.0,92,0.00,,,0.00,0.000000,,2013-04-27 10:32:00,
2013-04-27 00:42:00,67.0,65.0,-100.00,SE,143,2.0,7.0,92,0.00,,,0.00,0.000000,,2013-04-27 10:42:00,
2013-04-27 00:52:00,67.0,65.0,-100.00,SE,143,2.0,7.0,92,0.00,,,0.00,0.000000,,2013-04-27 10:52:00,
2013-04-27 01:22:00,66.0,64.0,-100.00,East,85,2.0,7.0,92,0.00,,,0.00,0.000000,,2013-04-27 11:22:00,
2013-04-27 01:31:00,66.0,64.0,-100.00,East,85,2.0,7.0,92,0.00,,,0.00,0.000000,,2013-04-27 11:31:00,
2013-04-27 01:41:00,66.0,64.0,-100.00,East,85,2.0,7.0,92,0.00,,,0.00,0.000000,,2013-04-27 11:41:00,
2013-04-27 01:52:00,66.0,64.0,-100.00,East,85,2.0,7.0,92,0.00,,,0.00,0.000000,,2013-04-27 11:52:00,
2013-04-27 02:21:00,64.0,63.0,-100.00,East,84,4.0,7.0,96,0.00,,,0.00,0.000000,,2013-04-27 12:21:00,
2013-04-27 02:32:00,64.0,63.0,-100.00,East,84,4.0,7.0,96,0.00,,,0.00,0.000000,,2013-04-27 12:32:00,
2013-04-27 02:42:00,64.0,63.0,-100.00,East,84,4.0,7.0,96,0.00,,,0.00,0.000000,,2013-04-27 12:42:00,
2013-04-27 02:51:00,64.0,63.0,-100.00,East,84,4.0,7.0,96,0.00,,,0.00,0.000000,,2013-04-27 12:51:00,
2013-04-27 03:21:00,64.0,62.0,-100.00,NNE,24,1.0,12.0,92,0.00,,,0.00,0.000000,,2013-04-27 13:21:00,
2013-04-27 03:32:00,64.0,62.0,-100.00,NNE,24,1.0,12.0,92,0.00,,,0.00,0.000000,,2013-04-27 13:32:00,
2013-04-27 03:41:00,64.0,62.0,-100.00,NNE,24,1.0,12.0,92,0.00,,,0.00,0.000000,,2013-04-27 13:41:00,
2013-04-27 03:52:00,64.0,62.0,-100.00,NNE,24,1.0,12.0,92,0.00,,,0.00,0.000000,,2013-04-27 13:52:00,
2013-04-27 04:21:00,66.0,64.0,-100.00,East,92,4.0,10.0,93,0.00,,,0.00,0.000000,,2013-04-27 14:21:00,
2013-04-27 04:31:00,66.0,64.0,-100.00,East,92,4.0,10.0,93,0.00,,,0.00,0.000000,,2013-04-27 14:31:00,
2013-04-27 04:41:00,66.0,64.0,-100.00,East,92,4.0,10.0,93,0.00,,,0.00,0.000000,,2013-04-27 14:41:00,
2013-04-27 04:52:00,66.0,64.0,-100.00,East,92,4.0,10.0,93,0.00,,,0.00,0.000000,,2013-04-27 14:52:00,
2013-04-27 05:21:00,66.0,64.0,-100.00,ESE,108,4.0,13.0,93,0.00,,,0.00,0.000000,,2013-04-27 15:21:00,
2013-04-27 05:33:00,66.0,64.0,-100.00,ESE,108,4.0,13.0,93,0.00,,,0.00,0.000000,,2013-04-27 15:33:00,
2013-04-27 05:42:00,66.0,64.0,-100.00,ESE,108,4.0,13.0,93,0.00,,,0.00,0.000000,,2013-04-27 15:42:00,
2013-04-27 05:52:00,66.0,64.0,-100.00,ESE,108,4.0,13.0,93,0.00,,,0.00,0.000000,,2013-04-27 15:52:00,
2013-04-27 06:22:00,63.0,63.0,-100.00,North,11,2.0,6.0,100,0.00,,,0.00,0.000000,,2013-04-27 16:22:00,
2013-04-27 06:32:00,63.0,63.0,-100.00,North,11,2.0,6.0,100,0.00,,,0.00,0.000000,,2013-04-27 16:32:00,
2013-04-27 06:42:00,63.0,63.0,-100.00,North,11,2.0,6.0,100,0.00,,,0.00,0.000000,,2013-04-27 16:42:00,
2013-04-27 06:52:00,63.0,63.0,-100.00,North,11,2.0,6.0,100,0.00,,,0.00,0.000000,,2013-04-27 16:52:00,
2013-04-27 07:22:00,62.0,62.0,-100.00,ESE,103,2.0,7.0,100,0.00,,,0.00,23.000000,,2013-04-27 17:22:00,
2013-04-27 07:31:00,62.0,62.0,-100.00,ESE,103,2.0,7.0,100,0.00,,,0.00,23.000000,,2013-04-27 17:31:00,
2013-04-27 07:42:00,62.0,62.0,-100.00,ESE,103,2.0,7.0,100,0.00,,,0.00,23.000000,,2013-04-27 17:42:00,
2013-04-27 07:52:00,62.0,62.0,-100.00,ESE,103,2.0,7.0,100,0.00,,,0.00,23.000000,,2013-04-27 17:52:00,
2013-04-27 08:22:00,74.0,67.0,-100.00,South,183,4.0,17.0,78,0.00,,,0.00,290.000000,,2013-04-27 18:22:00,
2013-04-27 08:32:00,74.0,67.0,-100.00,South,183,4.0,17.0,78,0.00,,,0.00,290.000000,,2013-04-27 18:32:00,
2013-04-27 08:41:00,74.0,67.0,-100.00,South,183,4.0,17.0,78,0.00,,,0.00,290.000000,,2013-04-27 18:41:00,
2013-04-27 08:51:00,74.0,67.0,-100.00,South,183,4.0,17.0,78,0.00,,,0.00,290.000000,,2013-04-27 18:51:00,
2013-04-27 09:21:00,76.0,64.0,-100.00,ESE,105,8.0,17.0,67,0.00,,,0.00,560.000000,,2013-04-27 19:21:00,
2013-04-27 09:32:00,76.0,64.0,-100.00,ESE,105,8.0,17.0,67,0.00,,,0.00,560.000000,,2013-04-27 19:32:00,
2013-04-27 09:42:00,76.0,64.0,-100.00,ESE,105,8.0,17.0,67,0.00,,,0.00,560.000000,,2013-04-27 19:42:00,
2013-04-27 09:52:00,76.0,64.0,-100.00,ESE,105,8.0,17.0,67,0.00,,,0.00,560.000000,,2013-04-27 19:52:00,
2013-04-27 10:21:00,78.0,63.0,-100.00,ESE,116,9.0,22.0,61,0.00,,,0.00,813.000000,,2013-04-27 20:21:00,
2013-04-27 10:32:00,78.0,63.0,-100.00,ESE,116,9.0,22.0,61,0.00,,,0.00,813.000000,,2013-04-27 20:32:00,
2013-04-27 10:42:00,78.0,63.0,-100.00,ESE,116,9.0,22.0,61,0.00,,,0.00,813.000000,,2013-04-27 20:42:00,
2013-04-27 10:52:00,78.0,63.0,-100.00,ESE,116,9.0,22.0,61,0.00,,,0.00,813.000000,,2013-04-27 20:52:00,
2013-04-27 11:21:00,78.0,61.0,-100.00,ENE,57,7.0,15.0,56,0.00,,,0.00,1046.000000,,2013-04-27 21:21:00,
2013-04-27 11:32:00,78.0,61.0,-100.00,ENE,57,7.0,15.0,56,0.00,,,0.00,1046.000000,,2013-04-27 21:32:00,
2013-04-27 11:42:00,78.0,61.0,-100.00,ENE,57,7.0,15.0,56,0.00,,,0.00,1046.000000,,2013-04-27 21:42:00,
2013-04-27 11:53:00,78.0,61.0,-100.00,ENE,57,7.0,15.0,56,0.00,,,0.00,1046.000000,,2013-04-27 21:53:00,
2013-04-27 12:22:00,82.0,61.0,-100.00,NE,52,4.0,9.0,50,0.00,,,0.00,817.000000,,2013-04-27 22:22:00,
2013-04-27 12:32:00,82.0,61.0,-100.00,NE,52,4.0,9.0,50,0.00,,,0.00,817.000000,,2013-04-27 22:32:00,
2013-04-27 12:42:00,82.0,61.0,-100.00,NE,52,4.0,9.0,50,0.00,,,0.00,817.000000,,2013-04-27 22:42:00,
2013-04-27 12:52:00,82.0,61.0,-100.00,NE,52,4.0,9.0,50,0.00,,,0.00,817.000000,,2013-04-27 22:52:00,
2013-04-27 13:22:00,80.0,64.0,-100.00,South,184,6.0,17.0,59,0.00,,,0.00,805.000000,,2013-04-27 23:22:00,
2013-04-27 13:32:00,80.0,64.0,-100.00,South,184,6.0,17.0,59,0.00,,,0.00,805.000000,,2013-04-27 23:32:00,
2013-04-27 13:42:00,80.0,64.0,-100.00,South,184,6.0,17.0,59,0.00,,,0.00,805.000000,,2013-04-27 23:42:00,
2013-04-27 13:52:00,80.0,64.0,-100.00,South,184,6.0,17.0,59,0.00,,,0.00,805.000000,,2013-04-27 23:52:00,
2013-04-27 14:21:00,82.0,66.0,-100.00,NNW,332,5.0,20.0,59,0.00,,,0.00,945.000000,,2013-04-28 00:21:00,
2013-04-27 14:31:00,82.0,66.0,-100.00,NNW,332,5.0,20.0,59,0.00,,,0.00,945.000000,,2013-04-28 00:31:00,
2013-04-27 14:42:00,82.0,66.0,-100.00,NNW,332,5.0,20.0,59,0.00,,,0.00,945.000000,,2013-04-28 00:42:00,
2013-04-27 14:52:00,82.0,66.0,-100.00,NNW,332,5.0,20.0,59,0.00,,,0.00,945.000000,,2013-04-28 00:52:00,
2013-04-27 15:21:00,77.0,65.0,-100.00,East,83,5.0,16.0,66,0.00,,,0.00,642.000000,,2013-04-28 01:21:00,
2013-04-27 15:31:00,77.0,65.0,-100.00,East,83,5.0,16.0,66,0.00,,,0.00,642.000000,,2013-04-28 01:31:00,
2013-04-27 15:41:00,77.0,65.0,-100.00,East,83,5.0,16.0,66,0.00,,,0.00,642.000000,,2013-04-28 01:41:00,
2013-04-27 15:52:00,77.0,65.0,-100.00,East,83,5.0,16.0,66,0.00,,,0.00,642.000000,,2013-04-28 01:52:00,
2013-04-27 16:21:00,77.0,66.0,-100.00,SSE,164,5.0,14.0,68,0.00,,,0.00,284.000000,,2013-04-28 02:21:00,
2013-04-27 16:32:00,77.0,66.0,-100.00,SSE,164,5.0,14.0,68,0.00,,,0.00,284.000000,,2013-04-28 02:32:00,
2013-04-27 16:42:00,77.0,66.0,-100.00,SSE,164,5.0,14.0,68,0.00,,,0.00,284.000000,,2013-04-28 02:42:00,
2013-04-27 16:52:00,77.0,66.0,-100.00,SSE,164,5.0,14.0,68,0.00,,,0.00,284.000000,,2013-04-28 02:52:00,
2013-04-27 17:21:00,73.0,64.0,-100.00,North,9,3.0,11.0,74,0.00,,,0.00,148.000000,,2013-04-28 03:21:00,
2013-04-27 17:32:00,73.0,64.0,-100.00,North,9,3.0,11.0,74,0.00,,,0.00,148.000000,,2013-04-28 03:32:00,
2013-04-27 17:42:00,73.0,64.0,-100.00,North,9,3.0,11.0,74,0.00,,,0.00,148.000000,,2013-04-28 03:42:00,
2013-04-27 17:53:00,73.0,64.0,-100.00,North,9,3.0,11.0,74,0.00,,,0.00,148.000000,,2013-04-28 03:53:00,
2013-04-27 18:22:00,73.0,65.0,-100.00,South,169,4.0,10.0,77,0.00,,,0.00,83.000000,,2013-04-28 04:22:00,
2013-04-27 18:32:00,73.0,65.0,-100.00,South,169,4.0,10.0,77,0.00,,,0.00,83.000000,,2013-04-28 04:32:00,
2013-04-27 18:42:00,73.0,65.0,-100.00,South,169,4.0,10.0,77,0.00,,,0.00,83.000000,,2013-04-28 04:42:00,
2013-04-27 18:52:00,73.0,65.0,-100.00,South,169,4.0,10.0,77,0.00,,,0.00,83.000000,,2013-04-28 04:52:00,
2013-04-27 19:22:00,71.0,66.0,-100.00,SSE,164,3.0,7.0,85,0.00,,,0.00,15.000000,,2013-04-28 05:22:00,
2013-04-27 19:32:00,71.0,66.0,-100.00,SSE,164,3.0,7.0,85,0.00,,,0.00,15.000000,,2013-04-28 05:32:00,
2013-04-27 19:42:00,71.0,66.0,-100.00,SSE,164,3.0,7.0,85,0.00,,,0.00,15.000000,,2013-04-28 05:42:00,
2013-04-27 19:52:00,71.0,66.0,-100.00,SSE,164,3.0,7.0,85,0.00,,,0.00,15.000000,,2013-04-28 05:52:00,
2013-04-27 20:21:00,70.0,67.0,-100.00,SSE,154,2.0,7.0,91,0.00,,,0.00,0.000000,,2013-04-28 06:21:00,
2013-04-27 20:32:00,70.0,67.0,-100.00,SSE,154,2.0,7.0,91,0.00,,,0.00,0.000000,,2013-04-28 06:32:00,
2013-04-27 20:42:00,70.0,67.0,-100.00,SSE,154,2.0,7.0,91,0.00,,,0.00,0.000000,,2013-04-28 06:42:00,
2013-04-27 20:51:00,70.0,67.0,-100.00,SSE,154,2.0,7.0,91,0.00,,,0.00,0.000000,,2013-04-28 06:51:00,
2013-04-27 21:21:00,67.0,67.0,-100.00,ENE,63,2.0,4.0,100,0.00,,,0.00,0.000000,,2013-04-28 07:21:00,
2013-04-27 21:31:00,67.0,67.0,-100.00,ENE,63,2.0,4.0,100,0.00,,,0.00,0.000000,,2013-04-28 07:31:00,
2013-04-27 21:42:00,67.0,67.0,-100.00,ENE,63,2.0,4.0,100,0.00,,,0.00,0.000000,,2013-04-28 07:42:00,
2013-04-27 21:52:00,67.0,67.0,-100.00,ENE,63,2.0,4.0,100,0.00,,,0.00,0.000000,,2013-04-28 07:52:00,
2013-04-27 22:21:00,65.0,65.0,-100.00,ENE,76,3.0,6.0,100,0.00,,,0.00,0.000000,,2013-04-28 08:21:00,
2013-04-27 22:32:00,65.0,65.0,-100.00,ENE,76,3.0,6.0,100,0.00,,,0.00,0.000000,,2013-04-28 08:32:00,
2013-04-27 22:42:00,65.0,65.0,-100.00,ENE,76,3.0,6.0,100,0.00,,,0.00,0.000000,,2013-04-28 08:42:00,
2013-04-27 22:52:00,65.0,65.0,-100.00,ENE,76,3.0,6.0,100,0.00,,,0.00,0.000000,,2013-04-28 08:52:00,
2013-04-27 23:21:00,65.0,65.0,-100.00,NE,41,2.0,5.0,100,0.00,,,0.00,0.000000,,2013-04-28 09:21:00,
2013-04-27 23:33:00,65.0,65.0,-100.00,NE,41,2.0,5.0,100,0.00,,,0.00,0.000000,,2013-04-28 09:33:00,
2013-04-27 23:42:00,65.0,65.0,-100.00,NE,41,2.0,5.0,100,0.00,,,0.00,0.000000,,2013-04-28 09:42:00,
2013-04-27 23:53:00,65.0,65.0,-100.00,NE,41,2.0,5.0,100,0.00,,,0.00,0.000000,,2013-04-28 09:53:00,